MCA123 UBBG-LOWW

Flight info

Callsign MCA123
Flight time 3h 23m
Altitude 36000
Route UBBG/12 MATAL2A MATAL UM11 REBLO UR317 DELEL UL851 KARDE LAGIR ADINA DCT NATEX NATEX2WXPES5N LOWW/34
Aircraft A319/M-SDE3GILORW/C

Departure

Time 2026-04-22 23:59
Airport Ganja International Airport (UBBG)

Arrival

Time 2026-04-23 03:22
Airport Vienna International Airport (LOWW)
Time Latitude Longitude Altitude Speed Heading
2026-04-22 23:50 40.73986 46.30207 1123 ft 0 kts 127°
2026-04-22 23:55 40.73982 46.30212 1123 ft 3 kts 145°
2026-04-22 23:55 40.73971 46.30260 1123 ft 9 kts 70°
2026-04-22 23:56 40.74021 46.30241 1120 ft 12 kts 306°
2026-04-22 23:56 40.74083 46.30148 1116 ft 9 kts 358°
2026-04-22 23:56 40.74161 46.30224 1110 ft 17 kts 40°
2026-04-22 23:56 40.74270 46.30339 1102 ft 22 kts 37°
2026-04-22 23:57 40.74401 46.30473 1094 ft 15 kts 37°
2026-04-22 23:57 40.74485 46.30559 1091 ft 16 kts 38°
2026-04-22 23:57 40.74582 46.30659 1085 ft 21 kts 38°
2026-04-22 23:57 40.74648 46.30748 1073 ft 2 kts 138°
2026-04-22 23:58 40.74621 46.30792 1074 ft 18 kts 127°
2026-04-22 23:58 40.74398 46.31163 1086 ft 83 kts 128°
2026-04-22 23:58 40.73905 46.31992 1107 ft 137 kts 129°
2026-04-22 23:58 40.73268 46.32858 1459 ft 144 kts 156°
2026-04-22 23:59 40.72403 46.32885 1915 ft 145 kts 207°
2026-04-22 23:59 40.71713 46.31932 2447 ft 151 kts 250°
2026-04-22 23:59 40.71645 46.30541 2988 ft 157 kts 271°
2026-04-22 23:59 40.71733 46.29052 3446 ft 172 kts 273°
2026-04-23 00:00 40.71972 46.25645 4463 ft 202 kts 273°
2026-04-23 00:00 40.72107 46.23731 5006 ft 218 kts 273°
2026-04-23 00:00 40.72250 46.21672 5515 ft 235 kts 273°
2026-04-23 00:01 40.72403 46.19462 6021 ft 253 kts 273°
2026-04-23 00:01 40.72568 46.17055 6532 ft 271 kts 273°
2026-04-23 00:01 40.72740 46.14521 7034 ft 289 kts 273°
2026-04-23 00:01 40.72925 46.11786 7543 ft 306 kts 274°
2026-04-23 00:02 40.73117 46.08942 8045 ft 322 kts 274°
2026-04-23 00:02 40.73320 46.05912 8552 ft 338 kts 274°
2026-04-23 00:02 40.73530 46.02776 9055 ft 352 kts 274°
2026-04-23 00:02 40.73746 45.99529 9554 ft 366 kts 274°
2026-04-23 00:03 40.73973 45.96112 10060 ft 375 kts 274°
2026-04-23 00:03 40.74196 45.92722 10557 ft 377 kts 274°
2026-04-23 00:03 40.74421 45.89264 11061 ft 379 kts 274°
2026-04-23 00:03 40.74647 45.85762 11568 ft 382 kts 274°
2026-04-23 00:04 40.74873 45.82262 12072 ft 384 kts 274°
2026-04-23 00:04 40.75101 45.78713 12580 ft 386 kts 274°
2026-04-23 00:04 40.75325 45.75202 13080 ft 388 kts 274°
2026-04-23 00:04 40.75551 45.71650 13584 ft 390 kts 274°
2026-04-23 00:05 40.75776 45.68091 14085 ft 392 kts 274°
2026-04-23 00:05 40.76000 45.64511 14587 ft 394 kts 273°
2026-04-23 00:05 40.76223 45.60914 15089 ft 396 kts 273°
2026-04-23 00:05 40.76450 45.57253 15597 ft 398 kts 273°
2026-04-23 00:06 40.76675 45.53612 16099 ft 401 kts 273°
2026-04-23 00:06 40.76901 45.49937 16603 ft 402 kts 273°
2026-04-23 00:06 40.77092 45.46279 17103 ft 404 kts 272°
2026-04-23 00:06 40.77264 45.42581 17605 ft 406 kts 272°
2026-04-23 00:07 40.77433 45.38849 18111 ft 408 kts 272°
2026-04-23 00:07 40.77601 45.35118 18613 ft 411 kts 272°
2026-04-23 00:07 40.77771 45.31341 19119 ft 413 kts 271°
2026-04-23 00:07 40.77940 45.27570 19622 ft 415 kts 271°
2026-04-23 00:08 40.78110 45.23768 20125 ft 417 kts 271°
2026-04-23 00:08 40.78282 45.19924 20632 ft 419 kts 271°
2026-04-23 00:08 40.78452 45.16081 21136 ft 421 kts 271°
2026-04-23 00:08 40.78621 45.12255 21635 ft 422 kts 271°
2026-04-23 00:09 40.78789 45.08401 22138 ft 423 kts 271°
2026-04-23 00:09 40.78959 45.04518 22642 ft 424 kts 271°
2026-04-23 00:09 40.79128 45.00614 23150 ft 424 kts 271°
2026-04-23 00:09 40.79292 44.96745 23651 ft 424 kts 271°
2026-04-23 00:10 40.79453 44.92897 24150 ft 424 kts 270°
2026-04-23 00:10 40.79614 44.89002 24634 ft 424 kts 270°
2026-04-23 00:10 40.79775 44.85080 24798 ft 430 kts 270°
2026-04-23 00:10 40.79936 44.81111 24944 ft 437 kts 270°
2026-04-23 00:11 40.80096 44.77125 25083 ft 442 kts 271°
2026-04-23 00:11 40.80262 44.73037 25327 ft 445 kts 270°
2026-04-23 00:11 40.80427 44.68963 25716 ft 444 kts 270°
2026-04-23 00:11 40.80587 44.64941 26176 ft 441 kts 270°
2026-04-23 00:12 40.80745 44.60940 26621 ft 439 kts 270°
2026-04-23 00:12 40.80904 44.56935 27025 ft 437 kts 270°
2026-04-23 00:12 40.81064 44.52909 27407 ft 436 kts 271°
2026-04-23 00:12 40.81216 44.48933 27812 ft 433 kts 270°
2026-04-23 00:13 40.81366 44.45021 28201 ft 431 kts 270°
2026-04-23 00:13 40.81517 44.41052 28566 ft 430 kts 270°
2026-04-23 00:13 40.81665 44.37113 28946 ft 428 kts 271°
2026-04-23 00:13 40.81807 44.33228 29269 ft 427 kts 270°
2026-04-23 00:14 40.81950 44.29353 29626 ft 425 kts 270°
2026-04-23 00:14 40.82093 44.25441 29956 ft 424 kts 269°
2026-04-23 00:14 40.82233 44.21574 30282 ft 423 kts 270°
2026-04-23 00:14 40.82371 44.17696 30643 ft 421 kts 270°
2026-04-23 00:15 40.82506 44.13877 30927 ft 420 kts 270°
2026-04-23 00:15 40.82640 44.10004 31198 ft 419 kts 270°
2026-04-23 00:15 40.82771 44.06211 31517 ft 417 kts 270°
2026-04-23 00:15 40.82902 44.02409 31863 ft 415 kts 270°
2026-04-23 00:16 40.83033 43.98609 32153 ft 414 kts 270°
2026-04-23 00:16 40.83160 43.94820 32380 ft 413 kts 270°
2026-04-23 00:16 40.83285 43.91038 32630 ft 413 kts 270°
2026-04-23 00:16 40.83409 43.87274 32905 ft 411 kts 270°
2026-04-23 00:17 40.83532 43.83505 33181 ft 409 kts 270°
2026-04-23 00:17 40.83651 43.79767 33408 ft 409 kts 270°
2026-04-23 00:17 40.83770 43.76040 33609 ft 409 kts 270°
2026-04-23 00:17 40.83887 43.72320 33799 ft 409 kts 270°
2026-04-23 00:18 40.84005 43.68552 34022 ft 408 kts 271°
2026-04-23 00:18 40.84183 43.64851 34256 ft 407 kts 272°
2026-04-23 00:18 40.84398 43.61115 34467 ft 406 kts 272°
2026-04-23 00:18 40.84618 43.57445 34628 ft 406 kts 272°
2026-04-23 00:19 40.84836 43.53696 34781 ft 406 kts 272°
2026-04-23 00:19 40.85049 43.50006 34934 ft 406 kts 271°
2026-04-23 00:19 40.85258 43.46285 35042 ft 407 kts 272°
2026-04-23 00:19 40.85462 43.42594 35226 ft 406 kts 272°
2026-04-23 00:20 40.85666 43.38882 35429 ft 405 kts 271°
2026-04-23 00:20 40.85870 43.35174 35567 ft 405 kts 271°
2026-04-23 00:20 40.86068 43.31481 35710 ft 405 kts 271°
2026-04-23 00:20 40.86262 43.27765 35905 ft 404 kts 272°
2026-04-23 00:21 40.86460 43.24088 35999 ft 405 kts 271°
2026-04-23 00:21 40.86854 43.16603 36011 ft 411 kts 271°
2026-04-23 00:22 40.87250 43.09048 36016 ft 415 kts 271°
2026-04-23 00:22 40.87642 43.01454 36010 ft 418 kts 271°
2026-04-23 00:23 40.88031 42.93750 36016 ft 423 kts 270°
2026-04-23 00:23 40.88420 42.85982 36014 ft 423 kts 271°
2026-04-23 00:24 40.88803 42.78251 36015 ft 422 kts 270°
2026-04-23 00:24 40.89178 42.70517 36015 ft 422 kts 270°
2026-04-23 00:25 40.89549 42.62788 36015 ft 422 kts 270°
2026-04-23 00:25 40.89913 42.55070 36014 ft 422 kts 271°
2026-04-23 00:26 40.90277 42.47315 36015 ft 423 kts 270°
2026-04-23 00:26 40.90633 42.39587 36019 ft 422 kts 271°
2026-04-23 00:27 40.90982 42.31863 36017 ft 423 kts 270°
2026-04-23 00:27 40.91327 42.24103 36013 ft 422 kts 270°
2026-04-23 00:28 40.91669 42.16360 36014 ft 422 kts 270°
2026-04-23 00:28 40.92000 42.08616 36014 ft 422 kts 270°
2026-04-23 00:29 40.92331 42.00891 36012 ft 422 kts 270°
2026-04-23 00:29 40.92656 41.93171 36015 ft 422 kts 270°
2026-04-23 00:30 40.92977 41.85397 36013 ft 422 kts 270°
2026-04-23 00:30 40.93292 41.77669 36008 ft 423 kts 270°
2026-04-23 00:31 40.93600 41.69910 36016 ft 423 kts 270°
2026-04-23 00:31 40.93906 41.62116 36014 ft 423 kts 270°
2026-04-23 00:32 40.94205 41.54362 36015 ft 423 kts 270°
2026-04-23 00:32 40.94501 41.46581 36016 ft 423 kts 270°
2026-04-23 00:33 40.94789 41.38831 36014 ft 423 kts 270°
2026-04-23 00:33 40.95073 41.31081 36015 ft 422 kts 269°
2026-04-23 00:34 40.95347 41.23365 36014 ft 423 kts 269°
2026-04-23 00:34 40.95620 41.15580 36013 ft 423 kts 269°
2026-04-23 00:35 40.95887 41.07807 36013 ft 422 kts 269°
2026-04-23 00:35 40.96148 41.00089 36013 ft 421 kts 270°
2026-04-23 00:36 40.96404 40.92371 36020 ft 422 kts 269°
2026-04-23 00:36 40.96657 40.84566 36036 ft 423 kts 269°
2026-04-23 00:37 40.96906 40.76828 36054 ft 423 kts 269°
2026-04-23 00:37 40.97148 40.69055 36063 ft 423 kts 269°
2026-04-23 00:38 40.97385 40.61274 36067 ft 422 kts 269°
2026-04-23 00:38 40.97615 40.53546 36067 ft 422 kts 269°
2026-04-23 00:39 40.97839 40.45803 36071 ft 423 kts 269°
2026-04-23 00:39 40.98058 40.38037 36066 ft 422 kts 269°
2026-04-23 00:40 40.98271 40.30282 36067 ft 421 kts 268°
2026-04-23 00:40 40.98479 40.22535 36068 ft 421 kts 268°
2026-04-23 00:41 40.98685 40.14791 36067 ft 421 kts 268°
2026-04-23 00:41 40.98877 40.07092 36072 ft 420 kts 268°
2026-04-23 00:42 40.99062 39.99426 36070 ft 420 kts 268°
2026-04-23 00:42 40.99274 39.91657 36072 ft 422 kts 270°
2026-04-23 00:43 40.99946 39.83929 36071 ft 424 kts 275°
2026-04-23 00:43 41.01266 39.76340 36072 ft 427 kts 281°
2026-04-23 00:44 41.03248 39.68914 36069 ft 430 kts 288°
2026-04-23 00:44 41.05691 39.61703 36069 ft 430 kts 289°
2026-04-23 00:45 41.08163 39.54533 36068 ft 426 kts 289°
2026-04-23 00:45 41.10607 39.47427 36068 ft 423 kts 289°
2026-04-23 00:46 41.13074 39.40324 36069 ft 422 kts 289°
2026-04-23 00:46 41.15494 39.33290 36073 ft 421 kts 288°
2026-04-23 00:47 41.17912 39.26201 36071 ft 421 kts 289°
2026-04-23 00:47 41.20309 39.19147 36069 ft 421 kts 288°
2026-04-23 00:48 41.22716 39.12048 36071 ft 421 kts 289°
2026-04-23 00:48 41.25120 39.04938 36068 ft 424 kts 289°
2026-04-23 00:49 41.27548 38.97746 36069 ft 428 kts 289°
2026-04-23 00:49 41.29984 38.90498 36068 ft 433 kts 289°
2026-04-23 00:50 41.32444 38.83174 36069 ft 434 kts 289°
2026-04-23 00:50 41.34904 38.75834 36071 ft 435 kts 289°
2026-04-23 00:51 41.37361 38.68485 36070 ft 435 kts 289°
2026-04-23 00:51 41.39800 38.61163 36070 ft 435 kts 289°
2026-04-23 00:52 41.42247 38.53801 36072 ft 436 kts 289°
2026-04-23 00:52 41.44696 38.46410 36071 ft 435 kts 289°
2026-04-23 00:53 41.47132 38.39039 36070 ft 435 kts 289°
2026-04-23 00:53 41.49569 38.31636 36071 ft 435 kts 288°
2026-04-23 00:54 41.51989 38.24250 36069 ft 435 kts 288°
2026-04-23 00:54 41.54403 38.16872 36071 ft 435 kts 288°
2026-04-23 00:55 41.56811 38.09501 36070 ft 434 kts 288°
2026-04-23 00:55 41.59214 38.02128 36070 ft 435 kts 288°
2026-04-23 00:56 41.61631 37.94700 36070 ft 436 kts 288°
2026-04-23 00:56 41.64035 37.87287 36070 ft 435 kts 288°
2026-04-23 00:57 41.66438 37.79850 36070 ft 434 kts 288°
2026-04-23 00:57 41.68818 37.72466 36070 ft 435 kts 288°
2026-04-23 00:58 41.71201 37.65057 36071 ft 434 kts 288°
2026-04-23 00:58 41.73586 37.57617 36069 ft 434 kts 288°
2026-04-23 00:59 41.75964 37.50185 36071 ft 435 kts 288°
2026-04-23 00:59 41.78334 37.42742 36070 ft 434 kts 288°
2026-04-23 01:00 41.80696 37.35316 36069 ft 434 kts 288°
2026-04-23 01:00 41.83038 37.27911 36069 ft 434 kts 288°
2026-04-23 01:01 41.85394 37.20438 36071 ft 435 kts 288°
2026-04-23 01:01 41.87746 37.12960 36070 ft 435 kts 288°
2026-04-23 01:02 41.90095 37.05480 36070 ft 436 kts 288°
2026-04-23 01:02 41.92480 36.98013 36070 ft 437 kts 289°
2026-04-23 01:03 41.94893 36.90512 36070 ft 439 kts 289°
2026-04-23 01:03 41.97299 36.82997 36071 ft 438 kts 289°
2026-04-23 01:04 41.99695 36.75478 36070 ft 438 kts 289°
2026-04-23 01:04 42.03280 36.64178 36069 ft 438 kts 289°
2026-04-23 01:05 42.05657 36.56655 36069 ft 438 kts 289°
2026-04-23 01:05 42.08026 36.49133 36070 ft 438 kts 289°
2026-04-23 01:06 42.10395 36.41598 36068 ft 438 kts 289°
2026-04-23 01:06 42.12801 36.34011 36071 ft 438 kts 289°
2026-04-23 01:07 42.15165 36.26482 36069 ft 438 kts 289°
2026-04-23 01:07 42.17523 36.18921 36070 ft 438 kts 289°
2026-04-23 01:08 42.19866 36.11378 36070 ft 438 kts 289°
2026-04-23 01:08 42.22216 36.03796 36069 ft 438 kts 289°
2026-04-23 01:09 42.24558 35.96213 36071 ft 437 kts 289°
2026-04-23 01:09 42.26879 35.88677 36070 ft 437 kts 289°
2026-04-23 01:10 42.29216 35.81062 36069 ft 437 kts 289°
2026-04-23 01:10 42.31538 35.73480 36070 ft 438 kts 289°
2026-04-23 01:11 42.33846 35.65922 36066 ft 438 kts 289°
2026-04-23 01:11 42.36158 35.58328 36052 ft 437 kts 289°
2026-04-23 01:12 42.38479 35.50682 36042 ft 438 kts 289°
2026-04-23 01:12 42.40780 35.43074 36037 ft 438 kts 289°
2026-04-23 01:13 42.43077 35.35466 36026 ft 438 kts 288°
2026-04-23 01:13 42.45371 35.27816 36013 ft 437 kts 288°
2026-04-23 01:14 42.47650 35.20203 36000 ft 437 kts 288°
2026-04-23 01:14 42.49930 35.12573 35992 ft 437 kts 288°
2026-04-23 01:15 42.52191 35.04987 35991 ft 437 kts 288°
2026-04-23 01:15 42.54477 34.97298 35989 ft 438 kts 288°
2026-04-23 01:16 42.56741 34.89665 35989 ft 439 kts 288°
2026-04-23 01:16 42.59004 34.82008 35988 ft 439 kts 288°
2026-04-23 01:17 42.61272 34.74314 35987 ft 439 kts 288°
2026-04-23 01:17 42.63538 34.66600 35988 ft 439 kts 288°
2026-04-23 01:18 42.65794 34.58898 35988 ft 440 kts 288°
2026-04-23 01:18 42.68049 34.51174 35990 ft 439 kts 288°
2026-04-23 01:19 42.70294 34.43464 35988 ft 440 kts 288°
2026-04-23 01:19 42.72539 34.35728 35990 ft 440 kts 288°
2026-04-23 01:20 42.74761 34.28032 35988 ft 440 kts 287°
2026-04-23 01:20 42.76984 34.20308 35989 ft 438 kts 287°
2026-04-23 01:21 42.79208 34.12569 35990 ft 439 kts 287°
2026-04-23 01:21 42.81433 34.04807 35989 ft 439 kts 287°
2026-04-23 01:22 42.83638 33.97098 35988 ft 440 kts 287°
2026-04-23 01:22 42.85846 33.89349 35989 ft 439 kts 287°
2026-04-23 01:23 42.88056 33.81569 35989 ft 439 kts 287°
2026-04-23 01:23 42.90247 33.73829 35991 ft 437 kts 287°
2026-04-23 01:24 42.92416 33.66148 35989 ft 435 kts 288°
2026-04-23 01:24 42.94587 33.58428 35990 ft 432 kts 288°
2026-04-23 01:25 42.96713 33.50854 35984 ft 430 kts 288°
2026-04-23 01:25 42.98845 33.43235 35971 ft 428 kts 288°
2026-04-23 01:26 43.00951 33.35681 35956 ft 426 kts 288°
2026-04-23 01:26 43.03048 33.28123 35945 ft 424 kts 288°
2026-04-23 01:27 43.05131 33.20592 35937 ft 423 kts 288°
2026-04-23 01:27 43.07204 33.13086 35935 ft 422 kts 288°
2026-04-23 01:28 43.09259 33.05626 35933 ft 423 kts 288°
2026-04-23 01:28 43.11358 32.98029 35934 ft 425 kts 289°
2026-04-23 01:29 43.13443 32.90501 35934 ft 427 kts 289°
2026-04-23 01:29 43.15533 32.82883 35934 ft 428 kts 289°
2026-04-23 01:30 43.17610 32.75269 35934 ft 428 kts 289°
2026-04-23 01:30 43.19688 32.67610 35934 ft 428 kts 289°
2026-04-23 01:31 43.21750 32.59983 35934 ft 428 kts 289°
2026-04-23 01:31 43.23803 32.52352 35935 ft 428 kts 289°
2026-04-23 01:32 43.25853 32.44695 35934 ft 428 kts 289°
2026-04-23 01:32 43.27906 32.37001 35934 ft 428 kts 289°
2026-04-23 01:33 43.29963 32.29376 35935 ft 428 kts 290°
2026-04-23 01:33 43.32185 32.21797 35933 ft 428 kts 290°
2026-04-23 01:34 43.34419 32.14193 35934 ft 429 kts 290°
2026-04-23 01:34 43.36624 32.06622 35948 ft 428 kts 290°
2026-04-23 01:35 43.38826 31.99006 35982 ft 428 kts 290°
2026-04-23 01:35 43.40998 31.91471 36023 ft 428 kts 290°
2026-04-23 01:36 43.43188 31.83840 36052 ft 428 kts 290°
2026-04-23 01:36 43.45359 31.76255 36064 ft 428 kts 290°
2026-04-23 01:37 43.47528 31.68651 36068 ft 428 kts 290°
2026-04-23 01:37 43.49688 31.61057 36068 ft 428 kts 290°
2026-04-23 01:38 43.51858 31.53402 36070 ft 428 kts 290°
2026-04-23 01:38 43.54007 31.45800 36069 ft 428 kts 290°
2026-04-23 01:39 43.56160 31.38160 36068 ft 428 kts 290°
2026-04-23 01:39 43.58296 31.30541 36072 ft 428 kts 289°
2026-04-23 01:40 43.60432 31.22892 36070 ft 428 kts 289°
2026-04-23 01:40 43.62564 31.15243 36070 ft 429 kts 289°
2026-04-23 01:41 43.64712 31.07523 36069 ft 434 kts 289°
2026-04-23 01:41 43.66880 30.99702 36070 ft 439 kts 289°
2026-04-23 01:42 43.69075 30.91759 36069 ft 443 kts 289°
2026-04-23 01:42 43.71251 30.83864 36070 ft 443 kts 289°
2026-04-23 01:43 43.73442 30.75877 36070 ft 443 kts 289°
2026-04-23 01:43 43.75616 30.67920 36070 ft 443 kts 289°
2026-04-23 01:44 43.77776 30.59981 36070 ft 443 kts 289°
2026-04-23 01:44 43.80009 30.52043 36070 ft 444 kts 292°
2026-04-23 01:45 43.82728 30.44349 36070 ft 445 kts 296°
2026-04-23 01:45 43.85619 30.36828 36070 ft 445 kts 297°
2026-04-23 01:46 43.88526 30.29239 36070 ft 444 kts 296°
2026-04-23 01:46 43.91409 30.21672 36070 ft 444 kts 296°
2026-04-23 01:47 43.94277 30.14128 36071 ft 445 kts 296°
2026-04-23 01:47 43.97165 30.06515 36070 ft 444 kts 296°
2026-04-23 01:48 44.00025 29.98958 36070 ft 444 kts 296°
2026-04-23 01:48 44.02896 29.91352 36071 ft 445 kts 296°
2026-04-23 01:49 44.05752 29.83763 36070 ft 445 kts 296°
2026-04-23 01:49 44.08614 29.76139 36070 ft 444 kts 296°
2026-04-23 01:50 44.11465 29.68549 36070 ft 444 kts 296°
2026-04-23 01:50 44.14335 29.60941 36070 ft 444 kts 296°
2026-04-23 01:51 44.17188 29.53319 36071 ft 444 kts 296°
2026-04-23 01:51 44.20026 29.45693 36071 ft 445 kts 296°
2026-04-23 01:52 44.22859 29.38049 36071 ft 445 kts 296°
2026-04-23 01:52 44.25689 29.30375 36071 ft 444 kts 295°
2026-04-23 01:53 44.28516 29.22672 36070 ft 444 kts 295°
2026-04-23 01:53 44.31314 29.15038 36070 ft 444 kts 295°
2026-04-23 01:54 44.34128 29.07349 36070 ft 444 kts 295°
2026-04-23 01:54 44.36929 28.99679 36069 ft 445 kts 295°
2026-04-23 01:55 44.39746 28.91942 36069 ft 448 kts 295°
2026-04-23 01:55 44.42581 28.84135 36070 ft 451 kts 295°
2026-04-23 01:56 44.45412 28.76310 36069 ft 454 kts 295°
2026-04-23 01:56 44.48246 28.68464 36069 ft 453 kts 295°
2026-04-23 01:57 44.51080 28.60589 36070 ft 453 kts 295°
2026-04-23 01:57 44.53914 28.52696 36069 ft 453 kts 295°
2026-04-23 01:58 44.56738 28.44803 36069 ft 453 kts 295°
2026-04-23 01:58 44.59562 28.36889 36071 ft 453 kts 295°
2026-04-23 01:59 44.62366 28.28994 36070 ft 453 kts 294°
2026-04-23 01:59 44.65171 28.21065 36070 ft 453 kts 294°
2026-04-23 02:00 44.67966 28.13152 36071 ft 453 kts 294°
2026-04-23 02:00 44.70764 28.05217 36071 ft 453 kts 294°
2026-04-23 02:01 44.73566 27.97246 36070 ft 453 kts 294°
2026-04-23 02:01 44.76336 27.89349 36067 ft 452 kts 294°
2026-04-23 02:02 44.79125 27.81371 36069 ft 453 kts 294°
2026-04-23 02:02 44.81889 27.73443 36070 ft 453 kts 294°
2026-04-23 02:03 44.84648 27.65506 36071 ft 453 kts 294°
2026-04-23 02:03 44.87411 27.57533 36069 ft 453 kts 294°
2026-04-23 02:04 44.90163 27.49568 36070 ft 453 kts 294°
2026-04-23 02:04 44.92913 27.41581 36066 ft 454 kts 294°
2026-04-23 02:05 44.95675 27.33541 36070 ft 453 kts 294°
2026-04-23 02:05 44.98397 27.25567 36074 ft 451 kts 294°
2026-04-23 02:06 45.01105 27.17619 36081 ft 449 kts 294°
2026-04-23 02:06 45.03802 27.09690 36085 ft 446 kts 294°
2026-04-23 02:07 45.06501 27.01740 36094 ft 445 kts 294°
2026-04-23 02:07 45.09164 26.93882 36097 ft 446 kts 293°
2026-04-23 02:08 45.11844 26.85984 36097 ft 447 kts 293°
2026-04-23 02:08 45.14545 26.78026 36096 ft 446 kts 293°
2026-04-23 02:09 45.17213 26.70106 36096 ft 446 kts 293°
2026-04-23 02:09 45.19869 26.62179 36094 ft 446 kts 293°
2026-04-23 02:10 45.22535 26.54187 36097 ft 446 kts 292°
2026-04-23 02:10 45.25177 26.46236 36095 ft 446 kts 293°
2026-04-23 02:11 45.27810 26.38292 36096 ft 445 kts 292°
2026-04-23 02:11 45.30438 26.30340 36098 ft 445 kts 292°
2026-04-23 02:12 45.33069 26.22330 36094 ft 445 kts 292°
2026-04-23 02:12 45.35670 26.14397 36095 ft 446 kts 292°
2026-04-23 02:13 45.38287 26.06397 36096 ft 446 kts 292°
2026-04-23 02:13 45.40883 25.98441 36093 ft 445 kts 292°
2026-04-23 02:14 45.43476 25.90459 36094 ft 447 kts 292°
2026-04-23 02:14 45.46085 25.82418 36098 ft 446 kts 292°
2026-04-23 02:15 45.49956 25.70438 36096 ft 445 kts 292°
2026-04-23 02:16 45.52534 25.62429 36095 ft 444 kts 292°
2026-04-23 02:16 45.55087 25.54474 36094 ft 445 kts 292°
2026-04-23 02:17 45.57661 25.46427 36099 ft 446 kts 292°
2026-04-23 02:17 45.60232 25.38367 36094 ft 445 kts 292°
2026-04-23 02:18 45.62786 25.30321 36096 ft 446 kts 291°
2026-04-23 02:18 45.65328 25.22274 36094 ft 446 kts 291°
2026-04-23 02:19 45.67872 25.14213 36093 ft 446 kts 291°
2026-04-23 02:19 45.70410 25.06157 36095 ft 445 kts 291°
2026-04-23 02:20 45.72941 24.98098 36095 ft 445 kts 291°
2026-04-23 02:20 45.75448 24.90088 36096 ft 445 kts 291°
2026-04-23 02:21 45.77978 24.81976 36095 ft 445 kts 291°
2026-04-23 02:21 45.80500 24.73866 36097 ft 445 kts 291°
2026-04-23 02:22 45.83000 24.65801 36097 ft 446 kts 291°
2026-04-23 02:22 45.85500 24.57712 36097 ft 445 kts 291°
2026-04-23 02:23 45.88007 24.49571 36094 ft 445 kts 291°
2026-04-23 02:23 45.90491 24.41478 36095 ft 446 kts 291°
2026-04-23 02:24 45.92974 24.33358 36098 ft 445 kts 291°
2026-04-23 02:24 45.95449 24.25223 36099 ft 445 kts 290°
2026-04-23 02:25 45.97918 24.17100 36095 ft 444 kts 291°
2026-04-23 02:25 46.00396 24.08922 36096 ft 445 kts 290°
2026-04-23 02:26 46.02855 24.00777 36095 ft 444 kts 290°
2026-04-23 02:26 46.05303 23.92644 36097 ft 444 kts 290°
2026-04-23 02:27 46.07750 23.84495 36097 ft 446 kts 290°
2026-04-23 02:27 46.10199 23.76306 36096 ft 445 kts 290°
2026-04-23 02:28 46.12655 23.68160 36095 ft 445 kts 291°
2026-04-23 02:28 46.15105 23.59986 36097 ft 444 kts 290°
2026-04-23 02:29 46.17534 23.51819 36096 ft 444 kts 291°
2026-04-23 02:29 46.19954 23.43627 36096 ft 445 kts 290°
2026-04-23 02:30 46.22360 23.35449 36095 ft 445 kts 290°
2026-04-23 02:30 46.24768 23.27218 36096 ft 445 kts 290°
2026-04-23 02:31 46.27155 23.19042 36098 ft 444 kts 290°
2026-04-23 02:31 46.29556 23.10792 36094 ft 444 kts 290°
2026-04-23 02:32 46.31945 23.02563 36096 ft 445 kts 290°
2026-04-23 02:32 46.34296 22.94401 36097 ft 440 kts 291°
2026-04-23 02:33 46.36640 22.86246 36096 ft 439 kts 293°
2026-04-23 02:33 46.38974 22.78122 36096 ft 443 kts 294°
2026-04-23 02:34 46.41354 22.69853 36099 ft 443 kts 294°
2026-04-23 02:34 46.43710 22.61635 36106 ft 443 kts 294°
2026-04-23 02:35 46.46058 22.53397 36114 ft 443 kts 294°
2026-04-23 02:35 46.48384 22.45202 36120 ft 443 kts 294°
2026-04-23 02:36 46.50716 22.36960 36124 ft 442 kts 294°
2026-04-23 02:36 46.53047 22.28670 36125 ft 443 kts 293°
2026-04-23 02:37 46.55354 22.20426 36125 ft 442 kts 293°
2026-04-23 02:37 46.57664 22.12163 36124 ft 443 kts 293°
2026-04-23 02:38 46.59980 22.03860 36123 ft 442 kts 293°
2026-04-23 02:38 46.62270 21.95623 36124 ft 443 kts 293°
2026-04-23 02:39 46.64575 21.87303 36125 ft 443 kts 293°
2026-04-23 02:39 46.66862 21.79016 36123 ft 443 kts 293°
2026-04-23 02:40 46.69154 21.70686 36125 ft 443 kts 293°
2026-04-23 02:40 46.71425 21.62405 36126 ft 443 kts 293°
2026-04-23 02:41 46.73696 21.54089 36127 ft 443 kts 293°
2026-04-23 02:41 46.75978 21.45709 36129 ft 443 kts 293°
2026-04-23 02:42 46.78225 21.37422 36133 ft 442 kts 293°
2026-04-23 02:42 46.80495 21.29009 36139 ft 443 kts 292°
2026-04-23 02:43 46.82734 21.20673 36142 ft 444 kts 292°
2026-04-23 02:43 46.84977 21.12305 36144 ft 444 kts 292°
2026-04-23 02:44 46.87196 21.03987 36149 ft 440 kts 293°
2026-04-23 02:44 46.89404 20.95679 36152 ft 437 kts 294°
2026-04-23 02:45 46.91583 20.87464 36152 ft 434 kts 295°
2026-04-23 02:45 46.93769 20.79227 36151 ft 433 kts 295°
2026-04-23 02:46 46.95926 20.71072 36151 ft 433 kts 295°
2026-04-23 02:46 46.98084 20.62868 36151 ft 433 kts 295°
2026-04-23 02:47 47.00238 20.54649 36151 ft 433 kts 295°
2026-04-23 02:47 47.02397 20.46379 36151 ft 433 kts 295°
2026-04-23 02:48 47.04529 20.38178 36150 ft 434 kts 295°
2026-04-23 02:48 47.06658 20.29948 36152 ft 434 kts 294°
2026-04-23 02:49 47.08784 20.21681 36152 ft 433 kts 294°
2026-04-23 02:49 47.10912 20.13421 36152 ft 433 kts 294°
2026-04-23 02:50 47.13064 20.05129 36151 ft 433 kts 294°
2026-04-23 02:50 47.15174 19.96921 36151 ft 433 kts 294°
2026-04-23 02:51 47.17286 19.88647 36152 ft 434 kts 294°
2026-04-23 02:51 47.19395 19.80335 36151 ft 433 kts 294°
2026-04-23 02:52 47.21493 19.72036 36151 ft 433 kts 294°
2026-04-23 02:52 47.23576 19.63762 36152 ft 433 kts 294°
2026-04-23 02:53 47.25664 19.55440 36155 ft 434 kts 294°
2026-04-23 02:53 47.27731 19.47166 36163 ft 433 kts 294°
2026-04-23 02:54 47.29807 19.38831 36171 ft 434 kts 294°
2026-04-23 02:54 47.31876 19.30475 36175 ft 434 kts 293°
2026-04-23 02:55 47.33932 19.22124 36177 ft 434 kts 293°
2026-04-23 02:55 47.35967 19.13826 36182 ft 431 kts 294°
2026-04-23 02:56 47.37976 19.05593 36181 ft 422 kts 295°
2026-04-23 02:56 47.39931 18.97579 36182 ft 413 kts 296°
2026-04-23 02:57 47.41855 18.89688 36179 ft 409 kts 296°
2026-04-23 02:57 47.43781 18.81782 36179 ft 409 kts 296°
2026-04-23 02:58 47.45680 18.73932 35583 ft 400 kts 296°
2026-04-23 02:58 47.46600 18.70107 35080 ft 393 kts 296°
2026-04-23 02:58 47.47503 18.66347 34579 ft 387 kts 296°
2026-04-23 02:58 47.48388 18.62662 34080 ft 382 kts 296°
2026-04-23 02:59 47.49264 18.59013 33582 ft 377 kts 296°
2026-04-23 02:59 47.50140 18.55374 33079 ft 372 kts 296°
2026-04-23 02:59 47.51001 18.51787 32577 ft 368 kts 296°
2026-04-23 02:59 47.51839 18.48282 32081 ft 364 kts 295°
2026-04-23 03:00 47.52681 18.44755 31577 ft 360 kts 295°
2026-04-23 03:00 47.53500 18.41314 31080 ft 357 kts 295°
2026-04-23 03:00 47.54317 18.37874 30579 ft 354 kts 294°
2026-04-23 03:00 47.55131 18.34446 30076 ft 351 kts 293°
2026-04-23 03:01 47.55928 18.31065 29577 ft 348 kts 293°
2026-04-23 03:01 47.56719 18.27704 29077 ft 346 kts 292°
2026-04-23 03:01 47.57509 18.24349 28574 ft 343 kts 292°
2026-04-23 03:01 47.58281 18.21068 28078 ft 341 kts 292°
2026-04-23 03:02 47.59059 18.17757 27576 ft 339 kts 291°
2026-04-23 03:02 47.59829 18.14477 27074 ft 337 kts 291°
2026-04-23 03:02 47.60589 18.11230 26575 ft 335 kts 291°
2026-04-23 03:02 47.61350 18.07980 26073 ft 333 kts 291°
2026-04-23 03:03 47.62109 18.04734 25570 ft 331 kts 290°
2026-04-23 03:03 47.62857 18.01526 25069 ft 330 kts 290°
2026-04-23 03:03 47.63601 17.98333 24569 ft 328 kts 290°
2026-04-23 03:03 47.64341 17.95151 24069 ft 327 kts 289°
2026-04-23 03:04 47.65069 17.92018 23573 ft 325 kts 289°
2026-04-23 03:04 47.65801 17.88862 23073 ft 324 kts 289°
2026-04-23 03:04 47.66533 17.85702 22570 ft 323 kts 289°
2026-04-23 03:04 47.67258 17.82566 22069 ft 322 kts 289°
2026-04-23 03:05 47.67977 17.79449 21569 ft 321 kts 288°
2026-04-23 03:05 47.68698 17.76321 21067 ft 320 kts 288°
2026-04-23 03:05 47.69412 17.73214 20566 ft 319 kts 288°
2026-04-23 03:05 47.70118 17.70138 20068 ft 318 kts 288°
2026-04-23 03:06 47.70834 17.67012 19562 ft 317 kts 288°
2026-04-23 03:06 47.71537 17.63939 19063 ft 316 kts 288°
2026-04-23 03:06 47.72240 17.60863 18562 ft 315 kts 288°
2026-04-23 03:06 47.72942 17.57790 18060 ft 315 kts 287°
2026-04-23 03:07 47.73637 17.54750 17564 ft 314 kts 287°
2026-04-23 03:07 47.74236 17.51643 17059 ft 313 kts 280°
2026-04-23 03:07 47.74494 17.48440 16553 ft 311 kts 271°
2026-04-23 03:07 47.74412 17.45229 16050 ft 310 kts 265°
2026-04-23 03:08 47.74199 17.42083 15554 ft 310 kts 264°
2026-04-23 03:08 47.73965 17.38908 15052 ft 309 kts 264°
2026-04-23 03:08 47.73730 17.35737 14551 ft 309 kts 264°
2026-04-23 03:08 47.73497 17.32556 14048 ft 309 kts 263°
2026-04-23 03:09 47.73269 17.29410 13549 ft 308 kts 263°
2026-04-23 03:09 47.73041 17.26259 13049 ft 308 kts 263°
2026-04-23 03:09 47.72812 17.23091 12546 ft 308 kts 263°
2026-04-23 03:09 47.72583 17.19947 12046 ft 308 kts 263°
2026-04-23 03:10 47.72351 17.16773 11542 ft 307 kts 263°
2026-04-23 03:10 47.72121 17.13639 11043 ft 307 kts 263°
2026-04-23 03:10 47.71890 17.10483 10540 ft 306 kts 263°
2026-04-23 03:10 47.71660 17.07359 10041 ft 306 kts 263°
2026-04-23 03:11 47.71478 17.04226 9540 ft 305 kts 266°
2026-04-23 03:11 47.71397 17.01727 9142 ft 304 kts 267°
2026-04-23 03:11 47.71308 16.98610 8643 ft 303 kts 268°
2026-04-23 03:11 47.71219 16.95504 8143 ft 302 kts 268°
2026-04-23 03:12 47.71129 16.92429 7647 ft 301 kts 268°
2026-04-23 03:12 47.71019 16.89301 7138 ft 300 kts 265°
2026-04-23 03:12 47.70712 16.86281 6641 ft 299 kts 259°
2026-04-23 03:12 47.70201 16.83296 6140 ft 298 kts 256°
2026-04-23 03:13 47.69672 16.80341 5637 ft 296 kts 261°
2026-04-23 03:13 47.69787 16.77343 5115 ft 293 kts 290°
2026-04-23 03:13 47.70931 16.74916 4615 ft 291 kts 321°
2026-04-23 03:13 47.72763 16.73678 4125 ft 292 kts 343°
2026-04-23 03:14 47.74723 16.73027 3630 ft 291 kts 347°
2026-04-23 03:14 47.76688 16.72395 3288 ft 284 kts 345°
2026-04-23 03:14 47.78554 16.71734 3226 ft 267 kts 345°
2026-04-23 03:14 47.80322 16.71124 3219 ft 250 kts 345°
2026-04-23 03:15 47.81946 16.70527 3216 ft 234 kts 343°
2026-04-23 03:15 47.83441 16.69937 3207 ft 208 kts 342°
2026-04-23 03:15 47.84748 16.69402 3198 ft 182 kts 342°
2026-04-23 03:15 47.85874 16.68931 3188 ft 154 kts 341°
2026-04-23 03:16 47.86849 16.68517 3208 ft 145 kts 341°
2026-04-23 03:16 47.87820 16.68098 3217 ft 146 kts 341°
2026-04-23 03:16 47.89778 16.67254 3219 ft 146 kts 341°
2026-04-23 03:17 47.90747 16.66838 3219 ft 146 kts 341°
2026-04-23 03:17 47.91731 16.66416 3219 ft 146 kts 341°
2026-04-23 03:17 47.92707 16.65998 3219 ft 146 kts 341°
2026-04-23 03:17 47.93681 16.65582 3219 ft 146 kts 341°
2026-04-23 03:18 47.94662 16.65163 3219 ft 146 kts 341°
2026-04-23 03:18 47.95635 16.64749 3216 ft 146 kts 341°
2026-04-23 03:18 47.96617 16.64331 3052 ft 146 kts 341°
2026-04-23 03:18 47.97580 16.63922 2865 ft 145 kts 341°
2026-04-23 03:19 47.98559 16.63506 2674 ft 145 kts 341°
2026-04-23 03:19 47.99515 16.63100 2487 ft 144 kts 341°
2026-04-23 03:19 48.00483 16.62689 2297 ft 144 kts 341°
2026-04-23 03:19 48.01445 16.62280 2107 ft 143 kts 341°
2026-04-23 03:20 48.02403 16.61874 1918 ft 143 kts 341°
2026-04-23 03:20 48.03349 16.61472 1730 ft 142 kts 341°
2026-04-23 03:20 48.04302 16.61068 1541 ft 142 kts 341°
2026-04-23 03:20 48.05260 16.60685 1355 ft 141 kts 341°
2026-04-23 03:21 48.06206 16.60309 1168 ft 140 kts 341°
2026-04-23 03:21 48.07136 16.59902 966 ft 139 kts 340°
2026-04-23 03:21 48.08084 16.59484 768 ft 140 kts 341°
2026-04-23 03:21 48.08966 16.59098 609 ft 124 kts 340°
2026-04-23 03:22 48.09692 16.58786 597 ft 88 kts 343°
2026-04-23 03:22 48.10122 16.58604 599 ft 40 kts 345°
2026-04-23 03:22 48.10281 16.58533 599 ft 18 kts 342°
2026-04-23 03:22 48.10389 16.58430 600 ft 18 kts 313°
2026-04-23 03:23 48.10442 16.58310 602 ft 5 kts 300°
2026-04-23 03:23 48.10466 16.58245 602 ft 8 kts 300°
2026-04-23 03:23 48.10506 16.58169 602 ft 10 kts 331°
2026-04-23 03:23 48.10585 16.58130 601 ft 13 kts 343°
2026-04-23 03:24 48.10686 16.58087 600 ft 16 kts 344°
2026-04-23 03:24 48.10802 16.58038 599 ft 18 kts 344°
2026-04-23 03:24 48.10901 16.57996 598 ft 12 kts 345°
2026-04-23 03:24 48.10995 16.57956 597 ft 15 kts 344°
2026-04-23 03:25 48.11089 16.57910 596 ft 10 kts 321°
2026-04-23 03:25 48.11126 16.57818 597 ft 11 kts 295°
2026-04-23 03:25 48.11161 16.57702 596 ft 13 kts 296°
2026-04-23 03:25 48.11205 16.57571 598 ft 13 kts 296°
2026-04-23 03:26 48.11246 16.57444 600 ft 13 kts 296°
2026-04-23 03:26 48.11277 16.57350 602 ft 7 kts 296°
2026-04-23 03:26 48.11317 16.57338 602 ft 9 kts 26°
2026-04-23 03:26 48.11385 16.57386 601 ft 12 kts 25°
2026-04-23 03:27 48.11472 16.57449 600 ft 15 kts 26°
2026-04-23 03:27 48.11580 16.57443 600 ft 16 kts 343°
2026-04-23 03:27 48.11700 16.57393 599 ft 19 kts 345°
2026-04-23 03:27 48.11787 16.57356 597 ft 7 kts 343°
2026-04-23 03:28 48.11828 16.57300 597 ft 9 kts 291°
2026-04-23 03:28 48.11855 16.57212 597 ft 6 kts 296°
2026-04-23 03:28 48.11858 16.57199 597 ft 0 kts 272°
2026-04-23 03:28 48.11854 16.57163 598 ft 6 kts 266°
2026-04-23 03:29 48.11870 16.57100 598 ft 7 kts 295°
2026-04-23 03:29 48.11883 16.57025 599 ft 4 kts 217°
2026-04-23 03:29 48.11860 16.57012 601 ft 2 kts 200°
2026-04-23 03:29 48.11853 16.57007 601 ft 0 kts 204°
2026-04-23 03:30 48.11836 16.56995 602 ft 2 kts 206°
2026-04-23 03:30 48.11826 16.56987 602 ft 0 kts 205°